Weather reports worldwide

Advertisment
Schleswig-Jagel, Germany (10037): temperature & dewpoint: 12.01.2020 13:00:00 - 18.01.2020 13:00:00 (CET)Schleswig-Jagel, Germany (10037): wind speed & gusts: 12.01.2020 13:00:00 - 18.01.2020 13:00:00 (CET)Schleswig-Jagel, Germany (10037): wind direction: 12.01.2020 13:00:00 - 18.01.2020 13:00:00 (CET)Schleswig-Jagel, Germany (10037): reduced air pressure: 12.01.2020 13:00:00 - 18.01.2020 13:00:00 (CET)Schleswig-Jagel, Germany (10037): visibility: 12.01.2020 13:00:00 - 18.01.2020 13:00:00 (CET)
Date & Time tt [°C] td [°C] ff [km/h] ff [kn] fx [km/h] fx [kn] dd ppp [hPa] vv [km]
18.01.2020 13:00:00 5,3 3,4 32 18 - - WSW 1017,5 13
18.01.2020 12:00:00 4,8 3,3 36 19 54 29 SW 1017,1 10
18.01.2020 11:00:00 5,3 3,0 43 23 58 31 SW 1016,5 13
18.01.2020 10:00:00 5,0 3,0 36 19 - - SW 1016,1 5
18.01.2020 09:00:00 4,9 2,5 32 18 50 27 SW 1015,6 12
18.01.2020 08:00:00 5,1 3,0 36 19 54 29 SW 1015,3 11
18.01.2020 07:00:00 4,5 2,6 32 18 - - SW 1014,8 11
18.01.2020 06:00:00 5,3 2,6 32 18 50 27 WSW 1014,4 8
18.01.2020 05:00:00 5,2 2,8 43 23 65 35 WSW 1013,9 12
18.01.2020 04:00:00 5,7 3,5 40 21 - - WSW 1013,4 13
18.01.2020 03:00:00 5,9 3,9 36 19 58 31 SW 1012,8 7
18.01.2020 02:00:00 6,1 3,4 36 19 54 29 SW 1012,3 17
18.01.2020 01:00:00 7,1 4,7 32 18 - - SW 1011,9 15
18.01.2020 00:00:00 7,5 5,6 29 16 - - SW 1011,6 10
17.01.2020 23:00:00 7,9 6,2 25 14 - - WSW 1011,6 10
17.01.2020 22:00:00 7,7 6,9 22 12 - - SW 1011,2 3,1
17.01.2020 21:00:00 7,5 6,7 18 10 - - SSW 1011,2 2,3
17.01.2020 20:00:00 7,4 6,6 14 8 - - S 1011,4 5
17.01.2020 19:00:00 7,6 6,4 11 6 - - SSW 1011,4 5
17.01.2020 18:00:00 8,4 5,0 14 8 - - SSW 1011,6 19
17.01.2020 17:00:00 8,6 4,6 14 8 - - S 1011,6 20
17.01.2020 16:00:00 8,9 4,4 18 10 - - S 1011,5 21
17.01.2020 15:00:00 9,4 4,5 14 8 - - S 1011,7 24
17.01.2020 14:00:00 9,7 4,4 18 10 - - S 1012,4 22
17.01.2020 13:00:00 9,3 4,2 18 10 - - S 1013,1 30
17.01.2020 12:00:00 8,5 3,8 14 8 - - S 1014,0 35
17.01.2020 11:00:00 7,4 4,1 14 8 - - SSW 1014,5 30
17.01.2020 10:00:00 5,8 3,3 18 10 - - SSE 1014,5 20
17.01.2020 09:00:00 5,9 3,3 18 10 - - SSE 1015,2 20
17.01.2020 08:00:00 5,7 3,2 18 10 - - SSE 1015,4 20
17.01.2020 07:00:00 4,8 3,0 14 8 - - SSE 1016,1 20
17.01.2020 06:00:00 5,5 3,4 11 6 - - SSE 1016,6 20
17.01.2020 05:00:00 4,8 3,3 14 8 - - SE 1017,2 17
17.01.2020 04:00:00 4,5 2,9 14 8 - - SSE 1017,9 17
17.01.2020 03:00:00 5,3 3,3 18 10 - - SSE 1018,7 17
17.01.2020 02:00:00 5,3 3,6 18 10 - - SSE 1019,4 17
17.01.2020 01:00:00 5,6 3,7 18 10 - - SSE 1020,0 16
17.01.2020 00:00:00 5,5 3,5 18 10 - - SSE 1020,5 17
16.01.2020 23:00:00 5,3 3,2 18 10 - - SSE 1020,9 18
16.01.2020 22:00:00 5,2 2,9 18 10 - - SSE 1021,6 17
16.01.2020 21:00:00 5,2 3,0 18 10 - - SSE 1022,4 15
16.01.2020 20:00:00 5,2 3,4 14 8 - - SSE 1023,2 14
16.01.2020 19:00:00 5,0 3,4 18 10 - - SSE 1023,8 12
16.01.2020 18:00:00 5,5 3,8 14 8 - - SSE 1023,8 12
16.01.2020 17:00:00 5,8 3,8 11 6 - - S 1024,1 12
16.01.2020 16:00:00 6,9 4,3 14 8 - - S 1024,4 12
16.01.2020 15:00:00 7,5 4,7 14 8 - - S 1024,5 12
16.01.2020 14:00:00 7,9 5,1 14 8 - - SSW 1024,4 8
16.01.2020 13:00:00 7,5 5,0 18 10 - - SW 1024,7 8
16.01.2020 12:00:00 7,0 4,8 25 14 - - SW 1024,8 8
16.01.2020 11:00:00 - - - - - - - - -
16.01.2020 10:00:00 5,3 3,9 21 11 - - SW 1024,0 10
16.01.2020 09:00:00 5,4 3,9 25 14 - - SW 1023,1 10
16.01.2020 08:00:00 5,2 3,9 24 13 - - SW 1022,1 10
16.01.2020 07:00:00 5,8 4,2 25 14 - - SW 1021,4 12
16.01.2020 06:00:00 6,2 4,6 25 14 47 25 SW 1020,9 9
16.01.2020 05:00:00 6,7 4,9 29 16 - - SW 1020,0 10
16.01.2020 04:00:00 6,0 4,7 29 16 - - SW 1018,9 10
16.01.2020 03:00:00 6,5 4,8 25 14 - - WSW 1018,6 11
16.01.2020 02:00:00 6,1 4,4 25 14 - - SW 1017,7 12
16.01.2020 01:00:00 5,6 4,0 25 14 - - SW 1016,9 12
16.01.2020 00:00:00 5,7 3,7 25 14 - - SW 1015,9 14
15.01.2020 23:00:00 5,7 3,7 22 12 - - SW 1014,6 15
15.01.2020 22:00:00 6,0 4,0 29 16 - - WSW 1013,5 16
15.01.2020 21:00:00 6,5 4,5 25 14 - - WSW 1012,1 10
15.01.2020 20:00:00 6,5 4,6 25 14 - - W 1010,4 10
15.01.2020 19:00:00 8,2 6,1 37 20 - - W 1008,9 10
15.01.2020 18:00:00 9,8 6,9 43 23 58 31 SW 1007,0 10
15.01.2020 17:00:00 10,3 6,8 40 21 61 33 SW 1006,3 10
15.01.2020 16:00:00 11,5 5,7 47 25 - - SW 1005,8 20
15.01.2020 15:00:00 11,3 6,0 22 12 54 29 SW 1005,3 20
15.01.2020 14:00:00 11,3 6,3 44 24 68 37 SW 1005,4 10
15.01.2020 13:00:00 11,9 6,1 36 19 - - SW 1005,5 25
15.01.2020 12:00:00 11,8 6,2 36 19 58 31 SW 1005,1 35
15.01.2020 11:00:00 11,7 6,3 32 18 58 31 SSW 1004,7 35
15.01.2020 10:00:00 11,7 6,5 32 18 - - SSW 1004,3 30
15.01.2020 09:00:00 12,0 6,8 40 21 58 31 SSW 1003,3 30
15.01.2020 08:00:00 12,0 7,2 32 18 61 33 SSW 1002,6 25
15.01.2020 07:00:00 11,7 7,6 36 19 - - SSW 1002,6 25
15.01.2020 06:00:00 11,2 8,2 36 19 58 31 SW 1002,3 20
15.01.2020 05:00:00 10,7 8,4 32 18 65 35 SSW 1002,1 11
15.01.2020 04:00:00 11,1 8,2 36 19 - - SSW 1001,8 18
15.01.2020 03:00:00 11,4 7,9 43 23 65 35 SW 1001,5 20
15.01.2020 02:00:00 11,2 8,1 36 19 58 31 SSW 1001,4 17
15.01.2020 01:00:00 11,4 7,8 40 21 - - SSW 1000,7 19
15.01.2020 00:00:00 11,1 7,6 40 21 65 35 SSW 1000,6 19
14.01.2020 23:00:00 10,9 7,5 43 23 61 33 SSW 1000,1 18
14.01.2020 22:00:00 10,0 7,1 29 16 - - SSW 1000,3 18
14.01.2020 21:00:00 9,2 7,2 32 18 54 29 S 1000,1 10
14.01.2020 20:00:00 9,3 7,1 29 16 47 25 S 1000,5 10
14.01.2020 19:00:00 9,0 7,3 26 14 - - S 1001,3 10
14.01.2020 18:00:00 8,9 7,1 25 14 - - S 1002,1 10
14.01.2020 17:00:00 8,5 6,3 18 10 - - S 1002,3 20
14.01.2020 16:00:00 8,3 6,1 22 12 - - SW 1002,7 20
14.01.2020 15:00:00 8,7 6,0 25 14 - - WSW 1002,5 20
14.01.2020 14:00:00 9,1 6,3 34 18 47 25 WSW 1002,3 10
14.01.2020 13:00:00 8,8 5,7 29 16 - - SW 1002,2 20
14.01.2020 12:00:00 7,5 5,3 25 14 - - SW 1001,8 12
14.01.2020 11:00:00 7,2 5,4 29 16 54 29 SW 1001,3 10
14.01.2020 10:00:00 8,5 7,5 29 16 - - SSW 1000,0 3,5
14.01.2020 09:00:00 8,2 6,9 29 16 58 31 SSW 999,3 8
14.01.2020 08:00:00 8,0 6,5 32 18 54 29 SSW 999,2 8
14.01.2020 07:00:00 7,6 6,1 31 17 - - S 999,5 8
14.01.2020 06:00:00 7,1 5,7 32 18 54 29 S 1000,2 8
14.01.2020 05:00:00 7,1 4,7 36 19 68 37 S 1001,0 8
14.01.2020 04:00:00 7,1 3,8 29 16 - - S 1002,0 21
14.01.2020 03:00:00 6,3 3,5 32 18 50 27 S 1003,3 20
14.01.2020 02:00:00 6,0 3,2 29 16 - - S 1004,6 20
14.01.2020 01:00:00 5,7 3,0 29 16 - - S 1005,4 20
14.01.2020 00:00:00 5,3 2,8 32 18 54 29 S 1006,5 19
13.01.2020 23:00:00 5,2 3,1 25 14 - - S 1008,3 17
13.01.2020 22:00:00 4,5 2,9 22 12 - - SSE 1009,1 13
13.01.2020 21:00:00 4,6 2,8 22 12 - - S 1010,3 12
13.01.2020 20:00:00 5,5 3,5 22 12 - - S 1011,1 12
13.01.2020 19:00:00 5,8 4,0 18 10 - - S 1012,2 12
13.01.2020 18:00:00 5,9 3,8 18 10 - - S 1013,0 12
13.01.2020 17:00:00 5,9 3,9 14 8 - - S 1013,6 12
13.01.2020 16:00:00 6,2 3,7 14 8 - - SW 1013,9 12
13.01.2020 15:00:00 6,5 4,2 18 10 - - SW 1014,5 10
13.01.2020 14:00:00 6,3 4,3 25 14 - - WSW 1015,1 10
13.01.2020 13:00:00 6,2 4,7 22 12 - - SW 1015,7 8
13.01.2020 12:00:00 5,9 4,7 18 10 - - SSW 1016,3 7
13.01.2020 11:00:00 5,2 4,3 14 8 - - SSW 1016,7 6
13.01.2020 10:00:00 4,7 3,9 14 8 - - S 1016,6 7
13.01.2020 09:00:00 4,7 3,8 18 10 - - SSW 1017,1 10
13.01.2020 08:00:00 5,1 4,2 15 8 - - SSW 1016,6 10
13.01.2020 07:00:00 5,4 4,4 22 12 - - SW 1016,9 10
13.01.2020 06:00:00 5,3 4,6 22 12 - - SW 1016,8 8
13.01.2020 05:00:00 5,3 4,5 14 8 - - SW 1016,9 8
13.01.2020 04:00:00 5,3 4,4 18 10 - - WSW 1017,0 9
13.01.2020 03:00:00 5,7 4,7 18 10 - - WSW 1016,9 9
13.01.2020 02:00:00 6,3 4,7 22 12 - - W 1016,6 12
13.01.2020 01:00:00 6,7 5,3 25 14 - - W 1016,1 13
13.01.2020 00:00:00 7,1 6,3 25 14 - - W 1015,4 11
12.01.2020 23:00:00 7,1 6,5 18 10 - - W 1014,3 8
12.01.2020 22:00:00 7,1 6,3 14 8 - - WSW 1013,4 10
12.01.2020 21:00:00 7,3 6,4 25 14 - - W 1012,4 8
12.01.2020 20:00:00 7,4 6,5 29 16 47 25 W 1011,6 7
12.01.2020 19:00:00 7,4 6,3 36 19 - - WSW 1010,9 3,1
12.01.2020 18:00:00 7,3 6,0 43 23 65 35 SW 1010,1 0,5
12.01.2020 17:00:00 6,5 5,4 40 21 65 35 SW 1010,3 1,9
12.01.2020 16:00:00 5,6 4,7 25 14 - - SW 1010,9 2,4
12.01.2020 15:00:00 5,3 4,3 29 16 - - SW 1011,5 5
12.01.2020 14:00:00 5,2 4,3 29 16 47 25 SW 1012,3 4,1
12.01.2020 13:00:00 5,1 4,2 32 18 - - SW 1013,1 2,2

tt = temperature
td = dewpoint
ff = wind speed
fx = gusts
dd = wind direction
ppp = reduced air pressure
vv = visibility

Next stations